Time,TemperatureF,DewpointF,PressureIn,WindDirection,WindDirectionDegrees,WindSpeedMPH,WindSpeedGustMPH,Humidity,HourlyPrecipIn,Conditions,Clouds,dailyrainin,SoftwareType,DateUTC
2013-11-14 00:13:00,32.0,13.0,30.29,SW,230,0.0,1.0,44,0.00,,,0.00,,2013-11-14 05:13:00,
2013-11-14 11:42:00,49.0,12.0,30.30,North,11,3.0,6.0,22,0.00,,,0.00,,2013-11-14 16:42:00,
2013-11-14 11:52:00,49.0,12.0,30.29,NE,50,2.0,4.0,22,0.00,,,0.00,,2013-11-14 16:52:00,
2013-11-14 12:13:00,49.0,13.0,30.28,North,9,2.0,6.0,23,0.00,,,0.00,,2013-11-14 17:13:00,
2013-11-14 12:23:00,50.0,13.0,30.28,NW,314,1.0,4.0,22,0.00,,,0.00,,2013-11-14 17:23:00,
2013-11-14 12:42:00,50.0,14.0,30.27,NNE,21,0.0,6.0,23,0.00,,,0.00,,2013-11-14 17:42:00,
2013-11-14 12:52:00,50.0,13.0,30.27,NE,40,1.0,4.0,22,0.00,,,0.00,,2013-11-14 17:52:00,
2013-11-14 13:12:00,51.0,12.0,30.26,NE,44,2.0,4.0,21,0.00,,,0.00,,2013-11-14 18:12:00,
2013-11-14 13:22:00,52.0,14.0,30.26,NE,39,2.0,4.0,22,0.00,,,0.00,,2013-11-14 18:22:00,
2013-11-14 13:42:00,53.0,16.0,30.25,NNE,29,1.0,5.0,23,0.00,,,0.00,,2013-11-14 18:42:00,
2013-11-14 13:52:00,53.0,17.0,30.25,NE,36,1.0,6.0,24,0.00,,,0.00,,2013-11-14 18:52:00,
2013-11-14 14:11:00,52.0,15.0,30.24,NE,52,2.0,5.0,23,0.00,,,0.00,,2013-11-14 19:11:00,
2013-11-14 14:22:00,53.0,19.0,30.24,NNW,346,1.0,4.0,26,0.00,,,0.00,,2013-11-14 19:22:00,
2013-11-14 14:42:00,52.0,20.0,30.24,North,1,0.0,5.0,28,0.00,,,0.00,,2013-11-14 19:42:00,
2013-11-14 14:52:00,52.0,19.0,30.23,NNE,14,1.0,5.0,27,0.00,,,0.00,,2013-11-14 19:52:00,
2013-11-14 15:12:00,52.0,20.0,30.23,NNE,26,1.0,3.0,28,0.00,,,0.00,,2013-11-14 20:12:00,
2013-11-14 15:22:00,51.0,19.0,30.22,NNE,23,0.0,4.0,28,0.00,,,0.00,,2013-11-14 20:22:00,
2013-11-14 15:42:00,51.0,20.0,30.22,North,4,2.0,4.0,29,0.00,,,0.00,,2013-11-14 20:42:00,
2013-11-14 15:52:00,50.0,19.0,30.22,WNW,291,1.0,4.0,29,0.00,,,0.00,,2013-11-14 20:52:00,
2013-11-14 16:11:00,50.0,18.0,30.22,North,349,0.0,3.0,28,0.00,,,0.00,,2013-11-14 21:11:00,
2013-11-14 16:22:00,49.0,18.0,30.22,West,262,0.0,2.0,29,0.00,,,0.00,,2013-11-14 21:22:00,
2013-11-14 16:43:00,49.0,19.0,30.22,WSW,240,0.0,2.0,30,0.00,,,0.00,,2013-11-14 21:43:00,
2013-11-14 16:53:00,47.0,18.0,30.22,NW,325,0.0,1.0,31,0.00,,,0.00,,2013-11-14 21:53:00,
2013-11-14 17:13:00,47.0,17.0,30.22,SSW,208,0.0,1.0,30,0.00,,,0.00,,2013-11-14 22:13:00,
2013-11-14 17:23:00,45.0,17.0,30.21,West,260,0.0,2.0,32,0.00,,,0.00,,2013-11-14 22:23:00,
2013-11-14 17:43:00,44.0,17.0,30.21,SW,233,1.0,4.0,33,0.00,,,0.00,,2013-11-14 22:43:00,
2013-11-14 17:53:00,43.0,16.0,30.22,SSW,206,1.0,4.0,33,0.00,,,0.00,,2013-11-14 22:53:00,
2013-11-14 18:12:00,43.0,17.0,30.22,South,191,1.0,3.0,34,0.00,,,0.00,,2013-11-14 23:12:00,
2013-11-14 18:22:00,42.0,16.0,30.22,SSW,202,2.0,5.0,35,0.00,,,0.00,,2013-11-14 23:22:00,
2013-11-14 18:43:00,42.0,16.0,30.22,SW,224,2.0,5.0,34,0.00,,,0.00,,2013-11-14 23:43:00,
2013-11-14 18:52:00,42.0,16.0,30.22,SSW,198,2.0,5.0,35,0.00,,,0.00,,2013-11-14 23:52:00,
2013-11-14 19:12:00,42.0,16.0,30.23,SW,221,3.0,8.0,35,0.00,,,0.00,,2013-11-15 00:12:00,
2013-11-14 19:22:00,42.0,16.0,30.22,SSW,209,5.0,9.0,34,0.00,,,0.00,,2013-11-15 00:22:00,
2013-11-14 19:42:00,41.0,15.0,30.22,SSW,206,3.0,8.0,35,0.00,,,0.00,,2013-11-15 00:42:00,
2013-11-14 19:52:00,40.0,15.0,30.22,SW,221,0.0,4.0,36,0.00,,,0.00,,2013-11-15 00:52:00,
2013-11-14 20:22:00,41.0,15.0,30.22,SW,221,2.0,5.0,35,0.00,,,0.00,,2013-11-15 01:22:00,
2013-11-14 20:32:00,41.0,15.0,30.22,SW,221,2.0,5.0,35,0.00,,,0.00,,2013-11-15 01:32:00,
2013-11-14 20:42:00,41.0,15.0,30.22,SW,221,2.0,5.0,35,0.00,,,0.00,,2013-11-15 01:42:00,
2013-11-14 20:52:00,41.0,15.0,30.21,WSW,251,1.0,6.0,35,0.00,,,0.00,,2013-11-15 01:52:00,
2013-11-14 21:12:00,40.0,15.0,30.21,SW,216,2.0,8.0,35,0.00,,,0.00,,2013-11-15 02:12:00,
2013-11-14 21:22:00,40.0,15.0,30.21,SSW,210,4.0,8.0,35,0.00,,,0.00,,2013-11-15 02:22:00,
2013-11-14 21:42:00,40.0,15.0,30.21,West,272,1.0,8.0,35,0.00,,,0.00,,2013-11-15 02:42:00,
2013-11-14 21:52:00,39.0,14.0,30.22,SW,215,1.0,5.0,36,0.00,,,0.00,,2013-11-15 02:52:00,
2013-11-14 22:12:00,40.0,15.0,30.22,SSW,195,3.0,11.0,35,0.00,,,0.00,,2013-11-15 03:12:00,
2013-11-14 22:22:00,40.0,14.0,30.21,West,259,3.0,9.0,34,0.00,,,0.00,,2013-11-15 03:22:00,
2013-11-14 22:44:00,40.0,14.0,30.21,WSW,255,1.0,8.0,34,0.00,,,0.00,,2013-11-15 03:44:00,
2013-11-14 22:54:00,40.0,14.0,30.21,SSW,207,3.0,11.0,34,0.00,,,0.00,,2013-11-15 03:54:00,
2013-11-14 23:14:00,40.0,13.0,30.21,WSW,244,2.0,10.0,33,0.00,,,0.00,,2013-11-15 04:14:00,
2013-11-14 23:53:00,41.0,13.0,30.21,South,189,1.0,10.0,31,0.00,,,0.00,,2013-11-15 04:53:00,